Tracking 28052 objects as of 21-Sep-2023
HD Live streaming from Space Station
objects crossing your sky now

STARLINK-2042

Track STARLINK-2042 now!
10-day predictions
STARLINK-2042 is classified as:


NORAD ID: 47658
Int'l Code: 2021-012AQ
Perigee: 553.2 km
Apogee: 555.7 km
Inclination: 53.1 °
Period: 95.6 minutes
Semi major axis: 6925 km
RCS: Unknown
Launch date: February 16, 2021
Source: United States (US)
Launch site: AIR FORCE EASTERN TEST RANGE (AFETR)
Your satellite tracking list
Your tracking list is empty




NASA's NSSDC Master Catalog

Two Line Element Set (TLE):
1 47658U 21012AQ  23263.96969373 -.00000992  00000-0 -47735-4 0  9996
2 47658  53.0540 155.1029 0001807 116.2015 243.9160 15.06356799143716
Source of the keplerian elements: AFSPC